EHI
0 0 0 0 0 0 0 0 0 0 0 0 0 0 0 0 0 0 0 0 0 0 0 0 0 0 0 0 0 0 0 0 0 0 0 0 0 0 0 0 0 0 0
0 0 0 0 0 0 0 0 0 0 0 0 0 0 0 0 0 0 0 0 0 0 0 0 0 0 0 0 0 0 0 0 0 0 0 0 0 0 0 0 0 0 0
0 0 0 1 1 0 0 0 0 0 0 0 0 0 0 0 0 0 0 0 0 0 0 0 0 0 0 0 0 0 0 0 0 0 0 0 0 0 0 0 0 0 0
0 0 1 2 2 1 0 0 0 0 0 0 0 0 0 0 0 0 0 0 0 0 0 0 0 0 0 0 0 0 0 0 0 0 0 0 0 0 0 0 0 0 0
0 0 1 2 2 1 0 0 0 0 0 0 0 0 0 0 0 0 0 0 0 0 0 0 0 0 0 0 0 0 0 0 0 0 0 0 0 0 0 0 0 0 0
0 0 1 1 1 0 0 0 0 0 0 0 0 0 0 0 0 0 0 0 0 0 0 0 0 0 0 0 0 0 0 0 0 0 0 0 0 0 0 0 0 0 0
0 0 0 0 0 0 0 0 0 0 0 0 0 0 0 0 0 0 0 0 0 0 0 0 0 0 0 0 0 0 0 0 0 0 0 0 0 0 0 0 0 0 0
0 0 0 0 0 0 0 0 0 0 0 0 0 0 0 0 0 0 0 0 0 0 0 0 0 0 0 0 0 0 0 0 0 0 0 0 0 0 0 0 0 0 0
0 0 0 0 0 0 0 0 0 0 0 0 0 0 0 0 0 0 0 0 0 0 0 0 0 0 0 0 0 0 0 0 0 0 0 0 0 0 0 0 0 0 0
0 0 0 0 0 0 0 0 0 0 0 0 0 0 0 0 0 0 0 0 0 0 0 0 0 0 0 0 0 0 0 0 0 0 0 0 0 0 0 0 0 0 0
0 0 0 0 0 0 0 0 0 0 0 0 0 0 0 0 0 0 0 0 0 0 0 0 0 0 0 0 0 0 0 0 0 0 0 0 0 0 0 0 0 0 0
0 0 0 0 0 0 0 0 0 0 0 0 0 0 0 0 0 0 0 0 0 0 0 0 0 0 0 0 0 0 0 0 0 0 0 0 0 0 0 0 0 0 0
0 0 0 0 0 0 0 0 0 0 0 0 0 0 0 0 0 0 0 0 0 0 0 0 0 0 0 0 0 0 0 0 0 0 0 0 0 0 0 0 0 0 0
0 0 0 0 0 0 0 0 0 0 0 0 0 0 0 0 0 0 0 0 0 0 0 0 0 0 0 0 0 0 0 0 0 0 0 0 0 0 0 0 0 0 0
0 0 0 0 0 0 0 0 0 0 0 0 0 0 0 0 0 0 0 0 0 0 0 0 0 0 0 0 0 0 0 0 0 0 0 0 0 0 0 0 0 0 0
0 0 0 0 0 0 0 0 0 0 0 0 0 0 0 0 0 0 0 0 0 0 0 0 0 0 0 0 0 0 0 0 0 0 0 0 0 0 0 0 0 0 0
0 0 0 0 0 0 0 0 0 0 0 0 0 0 0 0 0 0 0 0 0 0 0 0 0 0 0 0 0 0 0 0 0 0 0 0 0 0 0 0 0 0 0
0 0 0 0 0 0 0 0 0 0 0 0 0 0 0 0 0 0 0 0 0 0 0 0 0 0 0 0 0 0 0 0 0 0 0 0 0 0 0 0 0 0 0
0 0 0 0 0 0 0 0 0 0 0 0 0 0 0 0 0 0 0 0 0 0 0 0 0 0 0 0 0 0 0 0 0 0 0 0 0 0 0 0 0 0 0
0 0 0 0 0 0 0 0 0 0 0 0 0 0 0 0 0 0 0 0 0 0 0 0 0 0 0 0 0 0 0 0 0 0 0 0 0 0 0 0 0 0 0
0 0 0 0 0 0 0 0 0 0 0 0 0 0 0 0 0 0 0 0 0 0 0 0 0 0 0 0 0 0 0 0 0 0 0 0 0 0 0 0 0 0 0
0 0 0 0 0 0 0 0 0 0 0 0 0 0 0 0 0 0 0 0 0 0 0 0 0 0 0 0 0 0 0 0 0 0 0 0 0 0 0 0 0 0 0
0 0 0 0 0 0 0 0 0 0 0 0 0 0 0 0 0 0 0 0 0 0 0 0 0 0 0 0 0 0 0 0 0 0 0 0 0 0 0 0 0 0 0
0 0 0 0 0 0 0 0 0 0 0 0 0 0 0 0 0 0 0 0 0 0 0 0 0 0 0 0 0 0 0 0 0 0 0 0 0 0 0 0 0 0 0
0 0 0 0 0 0 0 0 0 0 0 0 0 0 0 0 0 0 0 0 0 0 0 0 0 0 0 0 0 0 0 0 0 0 0 0 0 0 0 0 0 0 0
0 0 0 0 0 0 0 0 0 0 0 0 0 0 0 0 0 0 0 0 0 0 0 0 0 0 0 0 0 0 0 0 0 0 0 0 0 0 0 0 0 0 0
Wind_Speed
13 16 19 18 16 15 14 14 14 13 13 13 13 12 12 13 13 13 13 13 13 13 14 14 15 15 16 16 16 16 16 16 16 16 15 16 16 16 16 15 13 12 16
17 18 20 18 17 16 15 14 14 13 13 13 13 12 12 12 13 13 13 13 13 13 13 14 14 14 15 15 15 15 15 15 15 14 13 13 14 15 15 15 14 11 14
19 18 20 18 18 17 16 15 14 14 13 13 13 12 12 12 12 12 12 13 13 13 13 13 14 14 14 14 14 14 14 14 13 11 9 9 11 14 14 13 13 13 13
19 17 18 19 18 17 17 16 15 14 13 13 12 12 12 12 12 12 12 12 12 13 13 13 13 13 13 13 13 13 13 12 11 8 8 9 9 12 13 12 12 12 12
18 16 18 19 18 18 17 16 16 15 14 13 12 12 12 12 12 12 12 12 12 12 12 12 12 12 13 12 12 12 12 11 8 8 8 8 8 10 11 11 11 11 11
18 16 18 19 18 18 17 17 16 15 13 13 12 11 11 11 12 11 11 11 11 11 11 11 11 11 11 11 11 11 10 8 5 7 7 7 7 9 10 10 10 10 9
18 16 18 18 19 18 18 17 16 14 13 13 12 12 12 11 11 11 11 11 11 11 10 10 10 10 10 10 10 10 9 6 6 6 6 6 8 9 9 9 8 8 8
16 15 17 18 17 18 17 17 16 15 14 13 12 12 12 12 11 11 10 10 10 10 10 9 9 9 9 9 8 8 7 5 4 5 5 6 8 8 8 9 9 9 9
15 15 15 16 16 16 16 16 15 14 14 13 12 12 12 11 11 10 10 9 9 9 8 8 8 8 8 8 7 7 6 4 3 4 4 5 7 7 7 8 9 9 9
14 14 14 15 15 15 14 14 14 13 13 13 12 11 11 10 10 10 9 9 8 8 7 7 7 7 7 7 6 6 3 2 4 3 3 5 7 7 7 7 8 8 9
14 14 14 15 14 14 13 13 13 12 12 12 11 11 10 8 9 8 8 8 8 7 6 6 6 6 5 6 5 3 2 1 3 2 3 7 7 6 7 8 8 8 8
18 17 14 15 14 13 11 11 10 10 11 10 10 11 8 7 6 6 9 6 6 6 6 6 5 4 2 3 4 3 0 2 2 2 3 6 6 6 7 7 8 8 8
19 17 16 15 14 13 10 9 7 7 8 9 10 10 7 6 5 5 5 6 6 5 4 5 4 2 1 1 1 1 2 2 2 2 3 5 6 6 6 7 7 7 7
18 19 17 16 14 14 11 9 8 7 7 7 9 10 8 5 6 5 4 5 4 3 3 3 1 2 1 1 0 1 1 1 1 1 3 5 5 6 6 6 7 7 7
19 19 18 17 16 14 12 9 9 9 8 9 8 9 9 7 7 6 5 5 5 3 3 3 2 2 1 1 0 1 1 1 1 1 1 4 4 5 6 6 7 7 7
19 19 19 19 17 15 13 11 10 9 9 9 9 10 11 8 7 6 6 5 5 4 3 3 3 2 1 1 1 1 2 1 1 1 1 2 3 4 5 6 6 7 7
19 19 19 19 18 17 16 14 10 9 9 9 9 11 11 9 8 7 6 6 5 5 4 3 3 2 2 1 2 1 1 2 1 1 0 0 1 3 4 5 6 6 7
18 19 19 16 18 18 16 13 10 10 10 9 9 9 12 11 10 8 7 6 6 5 4 4 3 3 2 2 1 1 1 1 2 1 1 1 0 0 2 4 5 6 7
18 19 19 19 20 18 17 13 11 10 10 9 9 9 11 12 12 9 7 6 7 5 5 4 4 3 3 2 1 1 2 2 1 2 2 1 1 1 1 2 2 4 6
18 18 19 19 19 18 14 11 9 10 10 9 9 10 12 11 13 11 8 9 8 6 6 6 5 4 3 2 2 2 2 2 2 2 2 2 2 2 1 2 1 1 3
17 19 20 20 19 16 13 12 12 12 11 10 10 12 13 13 13 12 9 9 8 7 8 8 6 5 4 3 3 3 3 4 4 3 3 3 3 3 2 2 2 3 2
19 20 20 20 20 19 15 14 12 12 10 10 9 11 13 14 14 11 12 9 9 8 9 9 7 5 4 4 3 3 3 4 4 4 4 3 4 3 3 3 3 3 3
19 21 18 21 21 20 18 12 10 9 8 9 11 11 14 15 14 13 13 11 10 10 9 9 9 9 5 5 4 4 3 3 1 4 5 4 4 4 4 3 4 4 4
19 18 20 20 20 20 19 16 17 14 13 15 12 11 13 15 15 14 14 13 11 10 10 10 10 8 7 5 4 4 5 3 4 2 3 4 5 5 5 4 4 4 4
17 17 18 19 20 20 20 20 19 16 14 11 12 13 13 13 15 15 14 13 12 10 11 10 10 10 8 7 5 4 5 4 6 5 5 4 4 5 5 5 4 4 4
14 15 16 18 19 20 20 20 20 20 17 15 15 13 12 10 12 15 15 13 13 11 12 11 10 11 9 8 7 6 5 4 5 5 6 6 5 4 4 4 5 5 4
Wind_Direction
162 160 160 156 154 151 145 139 133 127 123 119 115 110 106 101 97 95 92 89 88 87 86 85 81 79 78 76 74 72 70 68 65 61 59 61 61 60 56 49 46 52 48
154 158 158 157 156 152 147 141 134 130 125 122 118 113 110 108 103 98 95 92 90 88 87 87 84 81 79 78 75 73 71 69 66 63 62 65 62 59 57 53 48 48 47
152 156 158 158 156 153 148 143 138 135 129 124 121 116 113 111 107 102 98 95 92 90 90 88 86 84 82 79 77 75 73 70 66 63 65 65 64 59 57 54 51 49 46
152 156 158 156 157 154 149 146 142 138 132 127 124 122 119 114 108 104 98 96 94 92 91 90 87 85 84 82 79 77 74 69 63 59 60 58 60 58 54 52 49 47 45
153 157 153 157 157 155 151 148 144 139 135 132 128 124 120 115 110 107 103 100 98 96 95 93 91 88 85 83 80 77 73 68 65 64 62 58 58 56 53 48 44 43 41
156 157 153 160 157 153 152 150 147 143 141 138 134 131 126 121 116 111 108 106 104 103 100 98 94 90 88 84 81 77 72 64 69 63 58 50 49 47 49 44 38 35 33
157 158 156 162 159 156 155 153 151 149 147 144 141 137 131 126 122 118 116 114 110 108 105 101 98 93 90 86 82 76 68 52 54 62 54 46 39 32 39 37 31 26 23
158 159 158 163 161 160 159 157 155 153 152 148 146 142 136 133 130 127 124 120 115 110 107 103 99 96 91 85 80 73 63 32 65 59 50 45 30 21 25 25 20 17 17
161 163 163 165 166 164 163 161 159 157 155 152 151 146 141 138 137 134 129 124 119 113 109 106 102 97 91 85 80 75 66 16 38 56 45 37 17 13 17 15 12 10 13
167 170 170 170 170 168 166 162 160 159 158 156 153 145 141 143 143 138 139 130 125 119 113 107 101 96 89 83 81 78 68 269 51 52 36 30 4 5 10 10 10 12 15
176 177 178 176 174 171 169 162 163 161 159 157 152 141 151 160 153 152 135 133 134 127 120 109 101 97 103 100 85 81 243 18 46 29 31 14 357 3 5 8 13 17 19
182 183 182 181 176 173 169 168 172 170 168 174 166 164 172 166 151 144 123 134 134 129 126 109 108 129 185 129 125 210 2 24 17 38 40 5 354 1 5 10 13 15 21
183 182 184 184 180 177 174 175 173 172 174 179 175 172 172 164 154 162 156 155 156 162 158 143 173 156 132 71 9 17 11 351 4 27 49 9 352 358 7 11 15 17 24
185 187 187 185 185 184 181 179 177 176 177 178 178 178 175 174 175 170 175 170 172 175 169 180 185 153 162 145 312 348 350 334 351 2 48 15 356 359 6 11 14 17 19
189 188 189 188 188 187 186 183 184 184 182 181 181 185 184 182 182 177 180 178 183 179 184 193 200 183 203 212 286 306 313 324 329 336 62 49 13 8 9 14 15 16 15
193 191 190 191 191 189 189 189 189 188 186 186 185 190 191 190 187 184 185 186 187 190 194 204 205 209 217 232 269 293 307 311 315 317 3 95 66 25 14 15 14 12 9
195 192 192 193 192 193 194 194 192 191 189 190 189 192 193 194 190 190 192 190 192 193 197 206 201 219 227 232 246 273 297 309 297 297 300 324 105 76 38 19 13 10 2
197 194 193 191 194 196 195 195 194 193 192 193 192 193 196 197 194 194 196 197 193 191 198 202 209 213 218 236 253 255 258 254 263 270 230 212 261 96 81 40 16 7 355
199 195 193 193 196 196 196 194 195 194 196 196 194 196 198 199 197 199 201 199 194 198 201 201 213 220 225 234 254 261 260 250 237 229 218 203 200 254 300 78 30 8 350
201 198 196 195 198 195 195 194 194 198 199 198 198 200 198 199 199 201 202 203 199 201 203 205 205 211 232 232 237 252 250 241 231 230 226 209 203 215 257 295 283 355 345
200 200 199 197 197 193 192 193 194 198 199 200 201 202 201 201 200 203 203 202 201 206 208 209 205 205 213 215 233 242 225 222 228 220 226 224 208 219 241 270 290 301 297
200 200 200 199 196 195 195 195 198 199 200 201 199 204 203 203 202 203 206 203 201 207 210 209 206 210 203 207 234 253 247 209 203 215 222 229 232 228 240 260 275 280 292
202 200 198 198 197 197 195 192 190 192 194 197 200 202 204 203 203 204 207 206 204 206 208 208 206 209 209 202 224 243 260 265 255 197 214 225 232 241 247 254 260 265 275
203 199 199 198 197 196 193 193 191 194 197 201 199 200 201 203 204 205 206 207 206 207 209 208 207 209 211 207 203 231 257 287 270 261 210 219 233 248 252 252 253 252 258
200 196 197 197 197 195 195 197 197 202 205 201 198 200 200 200 204 205 206 206 208 208 210 207 205 206 210 213 202 198 216 233 248 260 265 248 237 237 247 255 253 250 249
196 193 194 196 197 195 196 198 201 203 203 198 197 197 196 196 201 205 206 207 208 208 208 207 205 207 209 212 209 205 204 211 218 231 255 265 267 258 252 249 247 245 245